Preview of NWS' New Version of Forecast
This preview is not operational and should not be used for support decisions.

Regional Weather Roundup (RWR)

Issued by National Weather Service (NWS)

                            
000
ASUS43 KLSX 220057
RWRMO 

WEATHER SUMMARY FOR MISSOURI
NATIONAL WEATHER SERVICE SPRINGFIELD MO
800 PM CDT SAT SEP 21 2019

NOTE: "FAIR" INDICATES FEW OR NO CLOUDS BELOW 12,000 FEET WITH NO
       SIGNIFICANT WEATHER AND/OR OBSTRUCTIONS TO VISIBILITY.
       CURRENT SKY AND/OR WEATHER CONDITIONS ARE NOT AVAILABLE FOR
       CHILLICOTHE AND FARMINGTON.

MOZ001>031-035>038-043-044-053-054-220200-
...NORTHERN AND WESTERN MISSOURI...
  
CITY           SKY/WX    TMP DP  RH WIND       PRES   REMARKS
KANSAS CTY INT MOCLDY    73  70  90 S14       29.93S                  
LEE'S SUMMIT   PTCLDY    74  69  85 S12       29.95S                  
ST JOSEPH      CLOUDY    74  69  85 S13       29.89F                  
CHILLICOTHE      N/A     73  70  90 S5        29.95S                  
KIRKSVILLE     PTCLDY    73  70  88 S8        29.98S                  
     
$$
MOZ066>068-077>081-088>096-101>105-220200-
...SOUTHWEST MISSOURI...
  
CITY           SKY/WX    TMP DP  RH WIND       PRES   REMARKS
SPRINGFIELD    CLEAR     79  66  64 S12       30.03S                  
JOPLIN         CLEAR     79  68  69 S10       30.00S                  
BRANSON        MOCLDY    73  66  78 SE6       30.08S                  
               
$$
MOZ032>034-039>042-045>050-055>058-069>072-220200-
...CENTRAL MISSOURI...  
  
CITY           SKY/WX    TMP DP  RH WIND       PRES   REMARKS
COLUMBIA       NOT AVBL                                               
JEFFERSON CITY PTCLDY    75  73  93 SE3       30.00S                  
ROLLA          CLEAR     77  69  76 S14       30.04F                  
SEDALIA        CLEAR     70  70 100 S12       29.98F                  
WARRENSBURG    CLEAR     72  68  88 S5        29.95S                  
               
$$
MOZ051-052-059>065-220200-
...EAST CENTRAL MISSOURI...
  
CITY           SKY/WX    TMP DP  RH WIND       PRES   REMARKS
ST LOUIS INTL  MOCLDY    81  67  62 S12       30.05S                  
                   
$$
MOZ072>076-082>087-097>100-106>115-220200-
...SOUTH CENTRAL AND SOUTHEAST MISSOURI...
  
CITY           SKY/WX    TMP DP  RH WIND       PRES   REMARKS
CAPE GIRARDEAU FAIR      77  60  55 S7        30.09R                  
POPLAR BLUFF   FAIR      76  67  73 SW3       30.08S                  
WEST PLAINS    CLEAR     76  65  68 S7        30.10S                  
                                       
$$